Regional Weather Roundup
Issued by NWS Green Bay, WI

Home | Current Version | Previous Version | Text Only | Print | Product List | Glossary On
Versions: 1 2 3 4 5 6 7 8 9 10 11 12 13 14 15 16 17 18 19 20 21 22 23 24 25 26 27 28 29 30 31 32 33 34 35 36 37 38 39 40 41 42 43 44 45 46 47 48 49 50
000
ASUS43 KGRB 032359
RWRGRB

NORTH-CENTRAL AND NORTHEAST WISCONSIN REGIONAL WEATHER ROUNDUP
NATIONAL WEATHER SERVICE GREEN BAY WI
700 PM CDT SUN MAY 03 2015

WIZ005-009-010>012-018-019-040100-
NORTH CENTRAL WISCONSIN

CITY           SKY/WX    TMP DP  RH WIND       PRES   REMARKS
IRONWOOD       PTSUNNY   66  45  45 NW14      29.83R
MANITOWISH WTR NOT AVBL
ARBOR VITAE    NOT AVBL
EAGLE RIVER    NOT AVBL
LAND O LAKES   NOT AVBL
RHINELANDER    PTSUNNY   68  47  46 NW24G36   29.81R
PHILLIPS       NOT AVBL
ANTIGO         NOT AVBL
TOMAHAWK       NOT AVBL
MERRILL        NOT AVBL
$$

WIZ013-073-040100-
NORTHEAST WISCONSIN

CITY           SKY/WX    TMP DP  RH WIND       PRES   REMARKS
IRON MOUNTAIN  MOCLDY    75  50  41 NW14G22   29.74S
MARINETTE      CLEAR     75  54  46 S15       29.76F
$$

WIZ017-030-035>037-045-040100-
CENTRAL WISCONSIN

CITY           SKY/WX    TMP DP  RH WIND       PRES   REMARKS
MEDFORD        NOT AVBL
WAUSAU         MOSUNNY   75  52  44 SW9       29.76S
MOSINEE        MOSUNNY   73  52  46 SW8       29.78F
MARSHFIELD     MOSUNNY   75  52  44 SW6       29.77S
WISC RAPIDS    SUNNY     76  50  40 S14       29.79S
STEVENS POINT  NOT AVBL
WAUPACA        NOT AVBL
SHAWANO        NOT AVBL
CLINTONVILLE   NOT AVBL
$$

WIZ038-039-048-051-040100-
FOX VALLEY

CITY           SKY/WX    TMP DP  RH WIND       PRES   REMARKS
NWS GREEN BAY  CLEAR     75  55  49 S15G25    29.79F
APPLETON       PTCLDY    73  52  46 S21G26    29.81F
OSHKOSH        CLEAR     72  54  53 S16       29.82F
FOND DU LAC    CLEAR     72  51  47 S18G28    29.83F
$$

WIZ022-050-052-040100-
EAST CENTRAL WISCONSIN

CITY           SKY/WX    TMP DP  RH WIND       PRES   REMARKS
STURGEON BAY   CLEAR     66  48  52 S12       29.82F
MANITOWOC      NOT AVBL
SHEBOYGAN      PTCLDY    72  54  53 S17G26    29.86F
$$

LMZ563-521-522-541>543-040100-
LAKESHORE

STATION/POSITION TIME  TEMP    WIND        PRES    VSBY  WAVE
                       AIR SEA DIR/SP/G                  HT/PER
                 (UTC) (F)     (DEG/KT/KT) (MB)    (MI)  (FT/S)
SHEBOYGAN LKSHOR 2300          210/ 26/ 30 1011.2F
KEWAUNEE LKSHORE 2300   49     180/ 13/ 15 1009.3F
NORTHPORT PIER   2300   63     160/  8/ 15 1009.1F
CHAMBERS ISLAND  2300   70     150/  5/ 14 1008.8S
MENOMINEE LKSHOR 2300   68     170/ 15/ 21 1009.1S
$$



USA.gov is the U.S. government's official web portal to all federal, state and local government web resources and services.